Date String (YYYY-MM-DD hh:mm:ss) UTC,Instrument flags,Ambient pressure (hPa),Sample flow (lpm),Bypass flow (lpm),Sample temperature (°C),Ambient temperature (°C),ASC tube jacket temperature (°C),LED temperature (°C),Box temperature (°C),Sample RH (%),Mass concentration (μg/m³),Mass concentration (μg/m³)
DateTimeUTC,F1_M11,P_M11,Q1_M11,Q2_M11,T1_M11,T2_M11,T3_M11,T4_M11,T5_M11,U1_M11,X2_M11,X0_M11
2021-08-14 05:00:00,,0834.2,5.01,0.00,29.5,27.5,00.0,38.7,31.1,34.6,0012.05,0027.87
2021-08-14 05:01:00,,0834.3,4.99,0.00,29.5,27.8,00.0,38.7,31.1,34.5,0012.08,0028.66
2021-08-14 05:02:00,,0834.2,5.01,0.00,29.6,28.0,00.0,38.7,31.2,34.5,0012.09,0029.55
2021-08-14 05:03:00,,0834.3,5.00,0.00,29.6,28.2,00.0,38.7,31.3,34.5,0012.09,0028.96
2021-08-14 05:04:00,,0834.3,5.00,0.00,29.6,28.3,00.0,38.7,31.3,34.4,0012.08,0027.63
2021-08-14 05:05:00,,0834.3,4.99,0.00,29.7,28.4,00.0,38.7,31.4,34.3,0012.07,0027.57
2021-08-14 05:06:00,,0834.3,5.01,0.00,29.7,28.6,00.0,38.7,31.4,34.2,0011.96,0026.39
2021-08-14 05:07:00,,0834.3,4.98,0.00,29.7,28.7,00.0,38.7,31.5,34.2,0011.93,0025.70
2021-08-14 05:08:00,,0834.3,5.02,0.00,29.8,28.7,00.0,38.7,31.5,34.2,0011.89,0026.15
2021-08-14 05:09:00,,0834.3,5.00,0.00,29.8,28.8,00.0,38.7,31.6,34.1,0011.92,0026.34
2021-08-14 05:10:00,,0834.3,5.00,0.00,29.9,28.9,00.0,38.8,31.6,34.0,0011.96,0026.65
2021-08-14 05:11:00,,0834.3,5.00,0.00,29.9,28.7,00.0,38.8,31.5,33.9,0012.03,0026.74
2021-08-14 05:12:00,,0834.2,4.99,0.00,29.8,27.0,00.0,38.8,31.1,33.8,0012.09,0027.01
2021-08-14 05:13:00,,0834.2,5.01,0.00,29.6,25.7,00.0,38.7,30.8,34.2,0012.12,0026.02
2021-08-14 05:14:00,,0834.1,5.00,0.00,29.5,25.6,00.0,38.7,30.7,34.5,0012.16,0025.57
2021-08-14 05:15:00,,0834.1,5.00,0.00,29.4,26.0,00.0,38.6,30.7,34.7,0012.16,0025.78
2021-08-14 05:16:00,,0834.1,4.99,0.00,29.3,26.5,00.0,38.6,30.8,34.8,0012.22,0025.58
2021-08-14 05:17:00,,0834.1,5.01,0.00,29.3,26.9,00.0,38.6,30.9,34.8,0012.27,0025.80
2021-08-14 05:18:00,,0834.1,5.00,0.00,29.3,27.2,00.0,38.5,31.0,34.9,0012.27,0026.47
2021-08-14 05:19:00,,0834.1,5.00,0.00,29.4,27.5,00.0,38.5,31.0,34.9,0012.25,0027.30
2021-08-14 05:20:00,,0834.1,5.01,0.00,29.4,27.8,00.0,38.5,31.1,35.1,0012.11,0026.83
2021-08-14 05:21:00,,0834.1,4.99,0.00,29.6,28.0,00.0,38.5,31.3,34.6,0012.01,0027.09
2021-08-14 05:22:00,,0834.1,5.00,0.00,29.8,28.2,00.0,38.5,31.4,34.0,0011.89,0028.15
2021-08-14 05:23:00,,0834.2,4.98,0.00,29.9,28.3,00.0,38.6,31.4,33.7,0011.78,0027.09
2021-08-14 05:24:00,,0834.3,5.00,0.00,30.0,28.4,00.0,38.6,31.5,33.6,0011.78,0027.18
2021-08-14 05:25:00,,0834.3,4.99,0.00,30.0,28.5,00.0,38.6,31.5,33.5,0011.78,0028.04
2021-08-14 05:26:00,,0834.3,5.01,0.00,30.1,28.6,00.0,38.7,31.5,33.4,0011.80,0027.85
2021-08-14 05:27:00,,0834.3,4.98,0.00,30.1,28.7,00.0,38.7,31.6,33.4,0011.80,0027.83
2021-08-14 05:28:00,,0834.3,5.01,0.00,30.1,28.8,00.0,38.8,31.6,33.3,0011.80,0028.20
2021-08-14 05:29:00,,0834.3,5.00,0.00,30.2,28.8,00.0,38.8,31.7,33.2,0011.83,0027.84
2021-08-14 05:30:00,,0834.3,5.00,0.00,30.2,28.8,00.0,38.9,31.7,33.3,0011.75,0025.90
2021-08-14 05:31:00,,0834.3,4.99,0.00,30.1,27.3,00.0,38.9,31.3,33.1,0011.82,0026.09
2021-08-14 05:32:00,,0834.3,5.01,0.00,29.9,25.9,00.0,38.9,30.9,33.4,0011.90,0025.52
2021-08-14 05:33:00,,0834.3,5.00,0.00,29.8,25.6,00.0,38.8,30.7,33.8,0011.94,0025.71
2021-08-14 05:34:00,,0834.3,5.00,0.00,29.7,25.9,00.0,38.8,30.8,34.0,0011.97,0026.08
2021-08-14 05:35:00,,0834.3,4.99,0.00,29.6,26.4,00.0,38.7,30.9,34.1,0011.90,0026.71
2021-08-14 05:36:00,,0834.3,5.00,0.00,29.6,26.8,00.0,38.7,30.9,34.1,0011.89,0026.12
2021-08-14 05:37:00,,0834.3,5.01,0.00,29.6,27.2,00.0,38.7,31.0,34.1,0011.85,0026.34
2021-08-14 05:38:00,,0834.3,5.00,0.00,29.6,27.5,00.0,38.7,31.1,34.0,0011.83,0025.76
2021-08-14 05:39:00,,0834.3,4.98,0.00,29.6,27.8,00.0,38.7,31.2,33.9,0011.83,0025.28
2021-08-14 05:40:00,,0834.3,5.01,0.00,29.6,28.0,00.0,38.7,31.2,33.6,0011.91,0025.67
2021-08-14 05:41:00,,0834.3,4.99,0.00,29.7,28.1,00.0,38.7,31.3,33.1,0011.96,0026.25
2021-08-14 05:42:00,,0834.3,4.99,0.00,29.7,28.3,00.0,38.7,31.3,32.8,0011.97,0026.78
2021-08-14 05:43:00,,0834.3,5.01,0.00,29.7,28.4,00.0,38.7,31.4,32.5,0012.01,0026.97
2021-08-14 05:44:00,,0834.4,4.99,0.00,29.8,28.5,00.0,38.7,31.4,32.5,0012.09,0026.44
2021-08-14 05:45:00,,0834.4,5.00,0.00,29.8,28.6,00.0,38.7,31.5,32.2,0012.16,0026.43
2021-08-14 05:46:00,,0834.4,5.00,0.00,29.8,28.7,00.0,38.7,31.5,32.1,0012.29,0025.76
2021-08-14 05:47:00,,0834.4,4.99,0.00,29.8,28.7,00.0,38.7,31.5,32.1,0012.40,0025.95
2021-08-14 05:48:00,,0834.4,5.00,0.00,29.9,28.8,00.0,38.8,31.6,32.0,0012.51,0025.84
2021-08-14 05:49:00,,0834.4,5.01,0.00,29.9,28.8,00.0,38.8,31.6,31.9,0012.65,0027.64
2021-08-14 05:50:00,,0834.4,4.98,0.00,29.9,28.9,00.0,38.8,31.7,31.9,0012.70,0027.92
2021-08-14 05:51:00,,0834.4,5.00,0.00,30.0,28.6,00.0,38.8,31.6,31.8,0012.69,0027.73
2021-08-14 05:52:00,,0834.4,5.01,0.00,29.9,27.1,00.0,38.8,31.1,31.8,0012.83,0027.81
2021-08-14 05:53:00,,0834.4,5.00,0.00,29.7,26.3,00.0,38.8,31.0,31.9,0012.91,0028.43
2021-08-14 05:54:00,,0834.4,5.00,0.00,29.6,26.5,00.0,38.8,30.9,32.2,0012.94,0028.97
2021-08-14 05:55:00,,0834.4,5.00,0.00,29.6,26.9,00.0,38.7,31.0,32.4,0012.97,0029.24
2021-08-14 05:56:00,,0834.5,4.99,0.00,29.5,27.2,00.0,38.7,31.1,32.4,0012.99,0029.71
2021-08-14 05:57:00,,0834.4,5.00,0.00,29.6,27.5,00.0,38.7,31.2,32.6,0012.95,0029.44
2021-08-14 05:58:00,,0834.5,5.00,0.00,29.6,27.8,00.0,38.7,31.2,32.4,0012.93,0028.70
2021-08-14 05:59:00,,0834.4,5.01,0.00,29.6,28.0,00.0,38.7,31.3,32.4,0012.86,0028.38
